Dewpoint
20 19 15 18 18 19 16 26 18 19 22 24 23 34 39 47 51 50 51 52 54 55 56 59 60 62 63 65 65 66 66 67
21 18 19 24 16 15 13 14 15 15 19 21 23 32 35 45 51 54 56 55 53 55 55 59 60 61 62 65 65 65 66 66
19 19 19 18 19 16 14 15 11 13 17 21 23 37 39 43 49 54 56 58 55 55 56 58 60 61 62 63 64 64 65 66
19 22 22 18 17 18 15 18 15 16 17 23 24 30 38 49 49 54 57 57 54 56 58 60 61 61 62 62 62 64 65 66
18 17 22 20 18 21 18 18 16 17 17 21 36 38 39 38 53 54 55 56 57 57 58 59 62 62 62 63 62 63 65 65
17 21 20 18 17 17 20 17 19 17 18 21 37 39 40 41 40 53 54 55 56 54 56 59 61 62 63 63 64 63 64 64
24 18 18 16 16 14 14 16 16 17 18 31 39 40 41 42 45 48 53 52 52 56 56 57 60 62 64 64 65 65 65 65
12 14 15 14 15 14 14 21 18 20 24 38 41 41 42 45 46 48 49 48 53 56 54 57 58 60 63 65 66 66 66 66
18 16 16 16 14 23 35 38 34 31 37 41 41 41 41 43 43 48 52 53 51 54 53 57 61 59 62 64 67 67 67 68
16 18 15 19 38 33 37 40 40 40 41 42 42 42 42 43 43 45 56 55 56 58 62 66 69 67 59 64 67 68 69 69
16 16 19 24 38 37 37 35 41 41 42 42 43 42 45 43 44 45 52 61 62 62 62 65 67 69 66 66 67 68 69 69
22 25 23 26 39 40 40 35 42 43 42 42 43 40 41 44 44 45 47 60 62 62 61 61 63 65 66 67 69 70 71 71
29 29 31 37 39 41 33 33 41 43 43 43 43 43 44 44 47 48 48 57 62 63 62 62 63 63 63 65 66 68 70 69
33 31 30 41 38 36 38 41 43 43 44 43 44 45 45 46 48 48 48 52 61 61 61 62 62 62 62 63 65 68 69 68
35 34 37 40 37 39 40 41 42 43 43 45 44 46 46 46 47 48 50 52 58 61 61 61 62 62 61 62 64 65 65 65
36 37 38 39 40 41 43 45 48 48 48 48 48 47 46 47 47 48 50 52 56 61 59 59 61 61 62 62 63 63 64 64
37 38 40 43 43 46 48 50 51 51 51 51 50 49 48 48 48 49 50 52 60 60 59 59 60 60 62 62 64 63 64 65
38 41 42 46 48 49 48 49 52 52 52 53 52 52 51 50 50 51 53 57 59 58 58 59 59 60 61 62 64 64 64 66
42 45 47 48 50 50 50 52 54 54 52 51 51 52 52 51 52 54 55 59 59 58 59 59 59 59 61 62 63 63 63 61
Lifted_Index
2 2 2 1 1 1 0 -0 -0 -0 -0 0 1 1 1 1 1 0 0 0 -0 -0 -0 -0 -0 -0 -0 -0 -0 -0 -0 -0
2 2 2 1 1 1 1 0 -0 -0 -0 0 0 1 1 1 0 -0 -0 0 -0 -1 -0 -0 -0 -0 -0 -0 -0 -0 -1 -1
2 2 2 2 2 2 1 1 -0 -0 0 1 1 1 1 1 0 -1 -1 -0 -0 -1 -1 -1 -0 -1 -1 -1 -1 -1 -1 -1
3 4 4 4 4 3 3 2 1 0 1 2 2 1 0 -0 -1 -1 -1 -1 -1 -1 -1 -1 -1 -1 -1 -1 -1 -1 -2 -2
3 5 5 5 5 5 4 3 2 1 1 2 3 2 0 -1 -1 -1 -1 -1 -1 -1 -2 -1 -1 -1 -1 -1 -1 -2 -2 -3
4 5 5 5 5 5 5 4 3 2 2 3 4 3 1 -1 -1 -0 -1 -1 -1 -1 -2 -2 -2 -2 -2 -2 -2 -2 -2 -3
5 5 6 5 5 5 5 5 4 4 4 5 5 4 2 0 0 0 -0 -1 -1 -1 -1 -2 -2 -2 -2 -2 -2 -2 -2 -2
5 6 6 5 5 6 6 6 6 5 5 6 5 4 3 2 1 1 1 0 -0 -0 -1 -2 -2 -2 -3 -3 -3 -3 -2 -2
4 5 5 5 6 7 7 8 7 6 6 6 5 4 2 2 1 1 1 0 0 -0 -1 -2 -3 -3 -3 -3 -3 -3 -3 -3
4 5 5 6 7 8 8 8 7 7 6 5 4 3 1 0 -0 -1 -1 -1 -1 -2 -3 -4 -5 -5 -4 -4 -4 -4 -4 -4
4 4 5 7 7 7 7 7 6 6 6 5 4 2 0 -1 -2 -3 -3 -3 -3 -4 -5 -6 -6 -5 -5 -5 -5 -5 -5 -5
5 5 5 6 6 6 6 5 5 5 5 5 4 2 0 -1 -2 -3 -4 -4 -4 -5 -6 -6 -6 -6 -6 -5 -5 -5 -5 -6
6 5 5 5 5 5 5 5 5 4 4 4 3 3 2 1 -1 -2 -3 -3 -3 -4 -4 -4 -4 -5 -5 -5 -5 -5 -5 -6
6 5 5 5 5 5 5 4 4 4 3 3 3 3 2 2 1 0 -1 -2 -2 -2 -2 -2 -2 -2 -3 -4 -4 -4 -4 -4
6 5 4 5 4 4 4 4 4 3 3 3 3 3 3 3 2 2 1 -0 -1 -1 -1 -1 -0 -0 -1 -1 -1 -2 -2 -3
5 4 4 4 4 4 4 4 4 4 4 4 4 3 3 3 3 3 2 1 -0 -1 -1 -0 -0 0 0 0 0 -1 -2 -2
4 4 4 4 3 3 4 4 4 4 4 4 4 4 4 3 3 3 3 2 0 -1 -1 -0 -0 -0 0 -0 -1 -1 -2 -3
4 4 4 4 3 4 4 4 4 4 4 4 4 4 4 4 3 3 3 2 0 -1 -0 0 0 -0 -0 -1 -1 -2 -3 -3
4 4 4 3 3 4 4 4 3 3 4 4 4 4 4 4 3 3 3 2 0 -1 0 1 0 -0 -1 -1 -2 -2 -3 -3